This is the latest recevied weather packets stored in our database for station/object s59zo-6. If no packets are shown the sender has not sent any weather packets the latest 10 day(s).
| Time | Temp. | Humidity | Pressure | Rain* | Wind** | Luminosity | Snow |
|---|---|---|---|---|---|---|---|
| 1787643004 | 16.67° C | 89% | 1016.8 hPa | 0 mm | - | - | - |
| 1787642704 | 16.67° C | 88% | 1016.8 hPa | 0 mm | - | - | - |
| 1787642405 | 16.67° C | 88% | 1016.8 hPa | 0 mm | - | - | - |
| 1787642104 | 16.67° C | 89% | 1017 hPa | 0 mm | - | - | - |
| 1787641804 | 16.67° C | 90% | 1017 hPa | 0.25 mm | - | - | - |
| 1787641504 | 16.67° C | 90% | 1016.9 hPa | 0.25 mm | - | - | - |
| 1787641205 | 16.11° C | 90% | 1016.9 hPa | 0.25 mm | - | - | - |
| 1787640904 | 16.11° C | 90% | 1016.7 hPa | 0.25 mm | - | - | - |
| 1787640604 | 16.11° C | 90% | 1016.8 hPa | 0.25 mm | - | - | - |
| 1787640304 | 16.11° C | 90% | 1016.8 hPa | 0.51 mm | - | - | - |
| 1787640004 | 16.11° C | 91% | 1016.8 hPa | 0.51 mm | - | - | - |
| 1787639704 | 15.56° C | 91% | 1016.8 hPa | 1.02 mm | - | - | - |
| 1787639405 | 15.56° C | 91% | 1016.8 hPa | 1.27 mm | - | - | - |
| 1787639104 | 16.11° C | 91% | 1016.9 hPa | 1.27 mm | - | - | - |
| 1787638804 | 16.11° C | 91% | 1016.1 hPa | 1.52 mm | - | - | - |
| 1787638503 | 16.11° C | 91% | 1016 hPa | 1.78 mm | - | - | - |
| 1787638204 | 16.11° C | 91% | 1016.1 hPa | 1.52 mm | - | - | - |
| 1787637904 | 16.11° C | 90% | 1016.5 hPa | 1.52 mm | - | - | - |
| 1787637604 | 16.11° C | 90% | 1016.9 hPa | 1.78 mm | - | - | - |
| 1787637304 | 15.56° C | 90% | 1017.1 hPa | 1.78 mm | - | - | - |
| 1787637004 | 15.56° C | 90% | 1017.2 hPa | 1.78 mm | - | - | - |
| 1787636704 | 15.56° C | 89% | 1017.4 hPa | 1.52 mm | - | - | - |
| 1787636405 | 15.56° C | 89% | 1017.5 hPa | 1.52 mm | - | - | - |
| 1787636104 | 15.56° C | 89% | 1017.8 hPa | 1.27 mm | - | - | - |
| 1787635804 | 15.56° C | 89% | 1017.8 hPa | 1.02 mm | - | - | - |
* Rain latest hour (hover to see other rain measurements)
** Current wind speed in m/s (hover to see current wind gust speed)